Retour au catalogue

FENGYUN 1C DEB

ActifSSO
NORAD 30294·DEBRIS·🇨🇳 China

Lancé May 10, 1999 depuis Taiyuan Satellite Launch Center

Loading…

Prochains Passages (prochaines 24 heures)

TLE

FraisSource: Space-Track

Époque: Sep 13, 2026, 11:20 UTC

1 30294U 99025ZF  26256.47224351  .00000357  00000-0  11378-3 0  9990
2 30294  98.3791 241.6155 0195910 209.0351 305.7359 14.35473828 24762

Suivez FENGYUN 1C DEB en temps réel avec AllMySat

Download on the App Store